Location: Casteldidone
(45.0667°N, 10.4000°E)
Time: 22:41:11
(UTC+00:00)

Daily predictions for brighter satellites

Satellite Brightness Start Highest point End
(mag) Time Altitude Azimuth Time Altitude Azimuth Time Altitude Azimuth
Cosmos 1656 4.2 16:05:49 10° NNW 16:11:20 68° WSW 16:16:54 10° SSE
USA 234 3.4 16:05:21 10° ESE 16:11:43 57° NNE 16:18:06 10° NW
SL-24 R/B - RUBIN 2 4.1 16:10:35 10° NNW 16:14:49 36° NE 16:18:51 10° ESE
NOSS 3-1 (A) 4.2 16:08:06 10° NW 16:15:41 90° WSW 16:24:32 10° SE
NOAA 6 4.2 16:11:06 10° SE 16:16:02 50° ENE 16:21:00 10° N
ISS -3.2 16:12:56 10° NW 16:16:11 42° NNE 16:19:26 10° E
Cosmos 1408 Rocket 4.3 16:15:49 10° NNW 16:20:06 57° W 16:24:24 10° S
NOSS 2-2 (E) 4.5 16:15:08 10° NNW 16:20:20 59° NE 16:27:37 10° SE
Cosmos 1634 Rocket 4.3 16:16:49 10° SSE 16:22:48 46° E 16:28:48 10° NNE
Cosmos 1666 4.1 16:20:21 10° NNE 16:22:56 18° ENE 16:25:31 10° ESE
Cosmos 1151 Rocket 4.3 16:20:05 10° SE 16:23:21 21° E 16:26:40 10° NE
PSLV R/B 4.4 16:22:47 10° SE 16:26:05 31° ENE 16:29:25 10° N
Cosmos 2026 Rocket 4.0 16:21:19 10° N 16:27:20 55° ENE 16:33:15 10° SSE
CZ-4B R/B 3.1 16:24:40 10° S 16:28:43 75° WSW 16:32:34 10° NNW
Cosmos 1743 Rocket 3.6 16:25:07 10° N 16:29:28 85° W 16:33:47 10° S
USA 305 4.3 16:26:07 10° NW 16:29:37 24° N 16:32:40 12° NE
Cosmos 2322 Rocket 3.8 16:26:46 10° N 16:29:48 14° NE 16:32:01 12° ENE
Cosmos 1933 3.3 16:25:52 10° S 16:29:52 68° E 16:33:54 10° NNE
Cosmos 2195 Rocket 4.5 16:25:00 10° N 16:31:09 69° E 16:37:20 10° SSE
Cosmos 1697 Rocket 2.7 16:25:42 10° NNW 16:31:21 89° ENE 16:36:58 10° SSE
Cosmos 858 Rocket 4.5 16:27:26 10° NNW 16:32:43 67° ENE 16:37:57 10° SSE
Okean O Rocket 2.8 16:32:22 10° ESE 16:35:46 22° ENE 16:39:10 10° NNE
SL-08 R/B 4.1 16:31:14 10° N 16:35:48 51° WNW 16:40:17 10° SW
Cosmos 1980 Rocket 2.3 16:30:34 10° NNW 16:36:08 53° ENE 16:41:37 10° SE
FengYun 1-2 T 4.3 16:31:35 10° SSE 16:37:11 87° WSW 16:42:46 10° NNW
Cosmos 540 Rocket 3.4 16:32:22 10° SSW 16:37:26 76° ESE 16:42:34 10° NNE
Cosmos 2369 3.7 16:34:46 10° NNW 16:40:31 71° ENE 16:46:13 10° SSE
Cosmos 1666 Rocket 4.1 16:36:41 10° N 16:40:46 35° ENE 16:44:48 10° SE
Cosmos 1809 Rocket 4.4 16:38:42 10° N 16:44:50 81° E 16:50:54 10° S
Cosmos 1812 3.3 16:41:41 10° SSE 16:45:13 36° E 16:48:47 10° NNE
SL-16 R/B 3.3 16:44:17 10° N 16:48:43 23° NE 16:51:23 17° E
Meteor 1-14 Rocket 4.5 16:43:14 10° N 16:48:54 50° ENE 16:54:39 10° SSE
CORIOLIS 4.1 16:43:48 10° SSE 16:49:12 87° ENE 16:54:40 10° NNW
Meteor 2-21 Rocket 4.5 16:44:37 10° N 16:50:38 57° ENE 16:56:35 10° SSE
Cosmos 1570 Rocket 4.5 16:45:56 10° S 16:50:48 40° ESE 16:55:00 13° NE
Cosmos 2082 Rocket 2.2 16:45:44 10° SSW 16:51:20 66° ESE 16:56:54 10° NNE
Cosmos 1814 Rocket 4.2 16:47:44 10° S 16:52:44 48° ESE 16:57:16 12° NNE
SKYMED 2 4.2 16:53:03 14° NE 16:56:22 34° E 17:00:20 10° SSE
CZ-4B DEB 4.2 16:56:32 10° SSE 17:02:03 86° WSW 17:07:35 10° NNW
USA 306 4.2 16:58:30 10° NW 17:02:05 26° N 17:03:34 21° NE
MOS 1-B Rocket 4.1 16:56:18 10° NNE 17:02:13 62° ESE 17:08:59 10° S
Cosmos 1939 Rocket 4.0 16:59:55 10° S 17:03:53 47° W 17:07:51 10° NNW
Cosmos 2278 3.7 16:58:30 10° NNW 17:04:11 63° ENE 17:09:49 10° SE
Sich 1 3.2 17:00:33 10° NNW 17:04:50 72° W 17:09:08 10° S
Cosmos 1818 4.0 16:59:57 10° NNW 17:05:10 42° NE 17:08:58 17° ESE
ARGOS 3.4 17:00:20 10° SE 17:05:29 46° ENE 17:10:37 10° N
CZ-2C R/B 3.7 17:04:10 10° S 17:05:49 12° SSE 17:07:28 10° SE
Cosmos 1805 Rocket 4.5 17:05:16 10° NNW 17:09:27 50° W 17:13:38 10° SSW
Cosmos 1833 Rocket 3.7 17:06:02 10° SW 17:11:24 44° WNW 17:16:48 10° NNE
GEOS 3 Rocket 4.4 17:13:45 26° ENE 17:15:13 31° NE 17:19:42 10° NNW
COSMOS 2406 3.9 17:09:38 10° SW 17:15:14 53° WNW 17:20:52 10° NNE
deb Chang Zheng 4 3.5 17:12:35 10° SSE 17:16:50 61° ENE 17:21:06 10° N
USA 267 3.7 17:16:33 19° NE 17:21:17 57° NNW 17:27:38 10° WSW
USA 307 4.0 17:17:43 10° NW 17:21:23 27° NNE 17:21:59 26° NNE
Cosmos 1782 3.9 17:18:42 10° SSW 17:22:31 44° WNW 17:26:22 10° N
Cosmos 2208 Rocket 4.0 17:20:43 10° S 17:26:03 67° ESE 17:29:27 23° NNE
Cosmos 1515 Rocket 4.0 17:22:59 10° SSE 17:26:51 38° E 17:26:51 38° E
CZ-2C R/B 2.4 17:22:04 10° NNE 17:27:16 73° ESE 17:32:26 10° S
SL-08 RB Rocket 3.9 17:23:24 10° SE 17:27:52 48° ENE 17:32:18 10° N
CZ-2D R/B 4.1 17:24:35 10° S 17:28:19 51° W 17:32:05 10° NNW
Cosmos 2150 Rocket 4.2 17:26:14 10° N 17:31:14 47° ENE 17:33:12 32° ESE
Meteor 2-6 Rocket 4.1 17:25:31 10° S 17:31:15 74° E 17:36:51 10° NNE
H-2A R/B 2.4 17:26:21 10° S 17:31:29 66° WSW 17:36:31 10° NNW
CZ-4C R/B 3.0 17:24:43 10° NW 17:32:03 89° NE 17:40:35 10° SE
Meteor 2-16 Rocket 4.5 17:26:36 10° N 17:32:43 82° W 17:38:51 10° S
CZ-4B R/B 3.1 17:27:26 10° SSE 17:32:51 87° WSW 17:38:14 10° NNW
Cosmos 841 Rocket 4.4 17:30:34 10° SW 17:35:30 45° WNW 17:40:22 10° N
YAOGAN 3 4.4 17:33:31 10° SSE 17:37:52 87° ENE 17:42:15 10° NNW
USA 32 4.4 17:35:56 10° SSE 17:40:19 42° ESE 17:40:19 42° ESE
USA 308 4.0 17:40:17 10° NW 17:43:39 30° N 17:43:39 30° N
COSMO-SKYMED 1 2.7 17:41:39 21° N 17:44:32 74° WNW 17:48:52 10° SSW
Cosmos 921 Rocket 2.8 17:41:08 10° S 17:45:18 71° ESE 17:45:21 71° E
Lacrosse 5 rocket 1.6 17:41:25 10° NW 17:44:49 52° N 17:44:49 52° N
Cosmos 1125 Rocket 3.5 17:41:16 10° NNW 17:46:29 58° ENE 17:47:31 49° ESE
COSMOS 2455 3.7 17:42:32 10° WSW 17:48:17 46° NW 17:52:28 18° NNE
Cosmos 2279 Rocket 4.4 17:43:29 10° SSW 17:49:38 63° WNW 17:55:48 10° N
Meteor 2-15 Rocket 4.3 17:45:33 10° S 17:51:36 68° E 17:55:52 20° NNE
Cosmos 1633 Rocket 3.9 17:47:37 10° NNW 17:51:52 50° W 17:56:06 10° SSW
ATLAS 2AS CENTAUR R/B 4.3 17:47:36 10° NNW 17:52:41 19° N 17:54:01 18° NNE
ISS -2.6 17:49:49 10° WNW 17:53:00 39° SW 17:53:03 39° SW
Cosmos 2360 Rocket 3.5 17:49:11 10° N 17:52:12 25° NNE 17:52:12 25° NNE
USA 234 3.9 17:48:25 10° SSE 17:54:46 53° SW 18:01:09 10° WNW
Cosmos 2266 Rocket 3.9 17:48:24 10° N 17:54:50 79° E 18:01:15 10° S
Cosmos 44 Rocket 3.1 17:50:09 10° NW 17:55:06 89° ENE 17:56:04 57° SE
Meteor 1-10 Rocket 4.1 17:51:09 10° S 17:56:56 87° E 18:00:37 23° NNE
Cosmos 1666 4.4 17:55:13 10° NNW 17:58:33 32° W 18:01:51 10° SSW
Meteor 1-11 Rocket 3.6 17:53:00 10° N 17:58:39 74° ENE 18:04:23 10° SSE
USA 305 4.4 18:06:16 10° NW 18:08:40 28° NNW 18:08:40 28° NNW
Okean O Rocket 2.8 18:07:37 10° S 18:11:50 42° W 18:16:06 10° NNW
Feng Yun 1-1 Rocket 4.4 18:06:58 10° S 18:12:54 78° WSW 18:18:47 10° NNW
Cosmos 2322 Rocket 2.5 18:09:18 10° NNW 18:13:54 54° N 18:13:54 54° N
Landsat 5 4.4 18:16:56 45° WNW 18:17:00 45° WNW 18:20:47 10° SW
Cosmos 1980 Rocket 4.3 18:15:14 10° NW 18:19:44 25° WSW 18:24:13 10° SSW
SL-16 R/B 2.4 18:27:43 10° NNW 18:33:21 70° WSW 18:33:21 70° WSW
Cosmos 2082 Rocket 4.2 18:31:24 10° WSW 18:35:55 24° NW 18:38:46 17° N
ATLAS CENTAUR R/B 4.2 18:33:21 10° W 18:37:45 20° NW 18:37:45 20° NW
CZ-2C R/B 4.2 18:41:36 10° SW 18:42:01 12° SW 18:42:01 12° SW
Cosmos 2333 Rocket 4.3 18:41:35 10° NNW 18:42:44 16° N 18:42:44 16° N
USA 267 4.4 19:03:55 33° NNW 19:03:55 33° NNW 19:09:12 10° WNW
